Time,TemperatureF,DewpointF,PressureIn,WindDirection,WindDirectionDegrees,WindSpeedMPH,WindSpeedGustMPH,Humidity,HourlyPrecipIn,Conditions,Clouds,dailyrainin,SoftwareType,DateUTC
2013-04-06 03:16:00,62.2,40.1,-100.00,North,0,0.0,-999.0,44,-99.99,,,0.00,meteohub,2013-04-06 00:16:00,
2013-04-06 03:21:00,62.4,40.3,-100.00,North,0,1.0,1.0,44,0.00,,,0.00,meteohub,2013-04-06 00:21:00,
2013-04-06 03:26:00,62.6,39.7,-100.00,NW,315,0.0,2.0,43,0.00,,,0.00,meteohub,2013-04-06 00:26:00,
2013-04-06 03:32:00,62.4,39.6,-100.00,NW,315,0.0,2.0,43,0.00,,,0.00,meteohub,2013-04-06 00:32:00,
2013-04-06 03:37:00,62.4,39.6,-100.00,NW,315,0.0,2.0,43,0.00,,,0.00,meteohub,2013-04-06 00:37:00,
2013-04-06 03:43:00,62.4,39.0,-100.00,SW,225,0.0,1.0,42,0.00,,,0.00,meteohub,2013-04-06 00:43:00,
2013-04-06 03:48:00,62.4,39.0,-100.00,SW,225,0.0,2.0,42,0.00,,,0.00,meteohub,2013-04-06 00:48:00,
2013-04-06 03:53:00,62.2,38.8,-100.00,West,270,0.0,2.0,42,0.00,,,0.00,meteohub,2013-04-06 00:53:00,
2013-04-06 03:58:00,62.1,38.7,-100.00,West,270,0.0,2.0,42,0.00,,,0.00,meteohub,2013-04-06 00:58:00,
2013-04-06 04:04:00,61.9,39.2,-100.00,West,270,0.0,0.0,43,0.00,,,0.00,meteohub,2013-04-06 01:04:00,
2013-04-06 04:09:00,62.1,38.7,-100.00,SW,225,0.0,1.0,42,0.00,,,0.00,meteohub,2013-04-06 01:09:00,
2013-04-06 04:14:00,62.2,38.8,-100.00,South,180,0.0,2.0,42,0.00,,,0.00,meteohub,2013-04-06 01:14:00,
2013-04-06 04:19:00,62.2,38.8,-100.00,SSW,202,0.0,2.0,42,0.00,,,0.00,meteohub,2013-04-06 01:19:00,
2013-04-06 04:25:00,62.2,38.8,-100.00,NE,45,0.0,2.0,42,0.00,,,0.00,meteohub,2013-04-06 01:25:00,
2013-04-06 04:30:00,62.4,38.5,-100.00,SW,225,0.0,2.0,41,0.00,,,0.00,meteohub,2013-04-06 01:30:00,
2013-04-06 04:35:00,62.2,38.3,-100.00,NNE,22,0.0,2.0,41,0.00,,,0.00,meteohub,2013-04-06 01:35:00,
2013-04-06 04:41:00,62.2,38.3,-100.00,West,270,0.0,2.0,41,0.00,,,0.00,meteohub,2013-04-06 01:41:00,
2013-04-06 04:46:00,62.2,38.3,-100.00,West,270,0.0,2.0,41,0.00,,,0.00,meteohub,2013-04-06 01:46:00,
2013-04-06 04:52:00,62.2,38.3,-100.00,SW,225,1.0,2.0,41,0.00,,,0.00,meteohub,2013-04-06 01:52:00,
2013-04-06 04:57:00,62.2,38.3,-100.00,SW,225,0.0,2.0,41,0.00,,,0.00,meteohub,2013-04-06 01:57:00,
2013-04-06 05:02:00,62.2,38.3,-100.00,SSW,202,0.0,2.0,41,0.00,,,0.00,meteohub,2013-04-06 02:02:00,
2013-04-06 05:08:00,62.1,38.1,-100.00,SW,225,0.0,2.0,41,0.00,,,0.00,meteohub,2013-04-06 02:08:00,
2013-04-06 05:13:00,61.9,37.9,-100.00,SE,135,0.0,1.0,41,0.00,,,0.00,meteohub,2013-04-06 02:13:00,
2013-04-06 05:19:00,62.1,38.1,-100.00,WNW,292,0.0,2.0,41,0.00,,,0.00,meteohub,2013-04-06 02:19:00,
2013-04-06 05:24:00,62.1,37.4,-100.00,South,180,0.0,2.0,40,0.00,,,0.00,meteohub,2013-04-06 02:24:00,
2013-04-06 05:29:00,62.2,37.6,-100.00,South,180,0.0,5.0,40,0.00,,,0.00,meteohub,2013-04-06 02:29:00,
2013-04-06 05:34:00,62.2,37.6,-100.00,SW,225,1.0,5.0,40,0.00,,,0.00,meteohub,2013-04-06 02:34:00,
2013-04-06 05:40:00,62.2,37.0,-100.00,South,180,1.0,2.0,39,0.00,,,0.00,meteohub,2013-04-06 02:40:00,
2013-04-06 05:45:00,62.4,36.5,-100.00,SW,225,3.0,3.0,38,0.00,,,0.00,meteohub,2013-04-06 02:45:00,
2013-04-06 05:51:00,62.6,36.7,-100.00,SSW,202,1.0,5.0,38,0.00,,,0.00,meteohub,2013-04-06 02:51:00,
2013-04-06 05:56:00,62.6,36.0,-100.00,SW,225,0.0,5.0,37,0.00,,,0.00,meteohub,2013-04-06 02:56:00,
2013-04-06 06:01:00,62.8,36.1,-100.00,South,180,0.0,4.0,37,0.00,,,0.00,meteohub,2013-04-06 03:01:00,
2013-04-06 06:07:00,62.6,36.0,-100.00,South,180,0.0,6.0,37,0.00,,,0.00,meteohub,2013-04-06 03:07:00,
2013-04-06 06:12:00,62.6,36.0,-100.00,South,180,0.0,6.0,37,0.00,,,0.00,meteohub,2013-04-06 03:12:00,
2013-04-06 06:17:00,62.6,36.0,-100.00,SW,225,1.0,3.0,37,0.00,,,0.00,meteohub,2013-04-06 03:17:00,
2013-04-06 06:23:00,62.6,36.0,-100.00,SW,225,1.0,3.0,37,0.00,,,0.00,meteohub,2013-04-06 03:23:00,
2013-04-06 06:29:00,62.4,36.5,-100.00,NE,45,3.0,3.0,38,0.00,,,0.00,meteohub,2013-04-06 03:29:00,
2013-04-06 06:34:00,62.6,35.2,-100.00,SW,225,4.0,4.0,36,0.00,,,0.00,meteohub,2013-04-06 03:34:00,
2013-04-06 06:39:00,62.8,35.4,-100.00,SW,225,0.0,5.0,36,0.00,,,0.00,meteohub,2013-04-06 03:39:00,
2013-04-06 06:44:00,62.8,35.4,-100.00,North,0,0.0,5.0,36,0.00,,,0.00,meteohub,2013-04-06 03:44:00,
2013-04-06 06:49:00,62.6,35.2,-100.00,SW,225,1.0,5.0,36,0.00,,,0.00,meteohub,2013-04-06 03:49:00,
2013-04-06 06:55:00,62.8,35.4,-100.00,North,0,2.0,4.0,36,0.00,,,0.00,meteohub,2013-04-06 03:55:00,
2013-04-06 07:00:00,62.8,35.4,-100.00,SW,225,0.0,4.0,36,0.00,,,0.00,meteohub,2013-04-06 04:00:00,
2013-04-06 07:01:00,63.0,35.6,-100.00,SW,225,1.0,4.0,36,0.00,,,0.00,meteohub,2013-04-06 04:01:00,
2013-04-06 07:02:00,62.8,35.4,-100.00,North,0,0.0,4.0,36,0.00,,,0.00,meteohub,2013-04-06 04:02:00,
2013-04-06 07:07:00,62.8,35.4,-100.00,West,270,0.0,4.0,36,0.00,,,0.00,meteohub,2013-04-06 04:07:00,
2013-04-06 07:13:00,63.0,35.6,-100.00,NNE,22,1.0,3.0,36,0.00,,,0.00,meteohub,2013-04-06 04:13:00,
2013-04-06 07:18:00,63.0,35.6,-100.00,SW,225,2.0,2.0,36,0.00,,,0.00,meteohub,2013-04-06 04:18:00,
2013-04-06 07:23:00,63.1,35.8,-100.00,NE,45,1.0,2.0,36,0.00,,,0.00,meteohub,2013-04-06 04:23:00,
2013-04-06 07:29:00,63.0,35.6,-100.00,NE,45,0.0,3.0,36,0.00,,,0.00,meteohub,2013-04-06 04:29:00,
2013-04-06 07:34:00,62.8,36.1,-100.00,NE,45,0.0,3.0,37,0.00,,,0.00,meteohub,2013-04-06 04:34:00,
2013-04-06 07:39:00,62.8,36.1,-100.00,NW,315,0.0,2.0,37,0.00,,,0.00,meteohub,2013-04-06 04:39:00,
2013-04-06 07:45:00,62.8,36.1,-100.00,NE,45,2.0,3.0,37,0.00,,,0.00,meteohub,2013-04-06 04:45:00,
2013-04-06 07:50:00,62.6,36.7,-100.00,NE,45,0.0,3.0,38,0.00,,,0.00,meteohub,2013-04-06 04:50:00,
2013-04-06 07:55:00,62.4,37.2,-100.00,NE,45,0.0,3.0,39,0.00,,,0.00,meteohub,2013-04-06 04:55:00,
2013-04-06 08:00:00,62.4,37.8,-100.00,NE,45,1.0,3.0,40,0.00,,,0.00,meteohub,2013-04-06 05:00:00,
2013-04-06 08:06:00,62.6,37.2,-100.00,NE,45,0.0,3.0,39,0.00,,,0.00,meteohub,2013-04-06 05:06:00,
2013-04-06 08:11:00,62.6,37.2,-100.00,NE,45,0.0,2.0,39,0.00,,,0.00,meteohub,2013-04-06 05:11:00,
2013-04-06 08:16:00,62.6,37.9,-100.00,NE,45,0.0,2.0,40,0.00,,,0.00,meteohub,2013-04-06 05:16:00,
2013-04-06 08:22:00,62.8,38.1,-100.00,NE,45,0.0,0.0,40,0.00,,,0.00,meteohub,2013-04-06 05:22:00,
2013-04-06 08:27:00,63.0,38.3,-100.00,SE,135,0.0,2.0,40,0.00,,,0.00,meteohub,2013-04-06 05:27:00,
2013-04-06 08:32:00,63.0,38.3,-100.00,East,90,0.0,2.0,40,0.00,,,0.00,meteohub,2013-04-06 05:32:00,
2013-04-06 08:37:00,63.1,39.0,-100.00,NE,45,1.0,2.0,41,0.00,,,0.00,meteohub,2013-04-06 05:37:00,
2013-04-06 08:42:00,63.3,39.2,-100.00,SE,135,0.0,2.0,41,0.00,,,0.00,meteohub,2013-04-06 05:42:00,
2013-04-06 08:47:00,63.3,39.9,-100.00,South,180,1.0,2.0,42,0.00,,,0.00,meteohub,2013-04-06 05:47:00,
2013-04-06 08:53:00,63.5,39.9,-100.00,NE,45,0.0,3.0,42,0.00,,,0.00,meteohub,2013-04-06 05:53:00,
2013-04-06 08:58:00,63.9,40.3,-100.00,South,180,0.0,3.0,42,0.00,,,0.00,meteohub,2013-04-06 05:58:00,
2013-04-06 09:04:00,64.2,40.6,-100.00,East,90,0.0,2.0,42,0.00,,,0.00,meteohub,2013-04-06 06:04:00,
2013-04-06 09:09:00,64.9,41.4,-100.00,NE,45,0.0,2.0,42,0.00,,,0.00,meteohub,2013-04-06 06:09:00,
2013-04-06 09:15:00,66.0,42.3,-100.00,East,90,0.0,1.0,42,0.00,,,0.00,meteohub,2013-04-06 06:15:00,
2013-04-06 09:20:00,66.2,41.2,-100.00,West,270,0.0,1.0,40,0.00,,,0.00,meteohub,2013-04-06 06:20:00,
2013-04-06 09:25:00,66.4,40.6,-100.00,South,180,1.0,1.0,39,0.00,,,0.00,meteohub,2013-04-06 06:25:00,
2013-04-06 09:31:00,67.1,41.4,-100.00,South,180,0.0,2.0,39,0.00,,,0.00,meteohub,2013-04-06 06:31:00,
2013-04-06 09:36:00,68.0,40.8,-100.00,SW,225,0.0,2.0,37,0.00,,,0.00,meteohub,2013-04-06 06:36:00,
2013-04-06 09:41:00,69.1,41.0,-100.00,West,270,0.0,2.0,36,0.00,,,0.00,meteohub,2013-04-06 06:41:00,
2013-04-06 09:52:00,70.2,41.2,-100.00,NE,45,0.0,2.0,35,0.00,,,0.00,meteohub,2013-04-06 06:52:00,
2013-04-06 09:57:00,70.5,39.2,-100.00,NE,45,0.0,2.0,32,0.00,,,0.00,meteohub,2013-04-06 06:57:00,
2013-04-06 10:02:00,70.9,39.6,-100.00,SW,225,0.0,2.0,32,0.00,,,0.00,meteohub,2013-04-06 07:02:00,
2013-04-06 10:07:00,71.6,39.4,-100.00,West,270,1.0,2.0,31,0.00,,,0.00,meteohub,2013-04-06 07:07:00,
2013-04-06 10:14:00,71.8,36.0,-100.00,NW,315,0.0,2.0,27,0.00,,,0.00,meteohub,2013-04-06 07:14:00,
2013-04-06 10:19:00,71.6,35.8,-100.00,South,180,0.0,3.0,27,0.00,,,0.00,meteohub,2013-04-06 07:19:00,
2013-04-06 10:25:00,71.2,33.6,-100.00,South,180,2.0,3.0,25,0.00,,,0.00,meteohub,2013-04-06 07:25:00,
2013-04-06 10:32:00,70.3,34.7,-100.00,South,180,0.0,3.0,27,0.00,,,0.00,meteohub,2013-04-06 07:32:00,
2013-04-06 10:33:00,70.3,33.8,-100.00,SSW,202,3.0,3.0,26,0.00,,,0.00,meteohub,2013-04-06 07:33:00,
2013-04-06 10:42:00,69.6,34.2,-100.00,South,180,2.0,3.0,27,0.00,,,0.00,meteohub,2013-04-06 07:42:00,
2013-04-06 10:47:00,69.3,37.4,-100.00,South,180,1.0,3.0,31,0.00,,,0.00,meteohub,2013-04-06 07:47:00,
2013-04-06 10:53:00,68.9,37.8,-100.00,NE,45,1.0,2.0,32,0.00,,,0.00,meteohub,2013-04-06 07:53:00,
2013-04-06 10:59:00,68.7,37.6,-100.00,South,180,2.0,3.0,32,0.00,,,0.00,meteohub,2013-04-06 07:59:00,
2013-04-06 11:04:00,68.7,37.6,-100.00,SW,225,0.0,3.0,32,0.00,,,0.00,meteohub,2013-04-06 08:04:00,
2013-04-06 11:10:00,68.4,37.4,-100.00,South,180,0.0,3.0,32,0.00,,,0.00,meteohub,2013-04-06 08:10:00,
2013-04-06 11:15:00,68.4,37.4,-100.00,SSW,202,2.0,2.0,32,0.00,,,0.00,meteohub,2013-04-06 08:15:00,
2013-04-06 11:20:00,68.5,35.1,-100.00,South,180,3.0,3.0,29,0.00,,,0.00,meteohub,2013-04-06 08:20:00,
2013-04-06 11:26:00,68.5,34.2,-100.00,South,180,1.0,3.0,28,0.00,,,0.00,meteohub,2013-04-06 08:26:00,
2013-04-06 11:31:00,68.5,34.2,-100.00,SW,225,3.0,3.0,28,0.00,,,0.00,meteohub,2013-04-06 08:31:00,
2013-04-06 11:36:00,68.7,34.3,-100.00,NW,315,0.0,3.0,28,0.00,,,0.00,meteohub,2013-04-06 08:36:00,
2013-04-06 11:41:00,68.7,31.5,-100.00,SSW,202,3.0,6.0,25,0.00,,,0.00,meteohub,2013-04-06 08:41:00,
2013-04-06 11:47:00,68.7,32.4,-100.00,South,180,0.0,6.0,26,0.00,,,0.00,meteohub,2013-04-06 08:47:00,
2013-04-06 11:52:00,68.7,32.4,-100.00,South,180,1.0,6.0,26,0.00,,,0.00,meteohub,2013-04-06 08:52:00,
2013-04-06 11:57:00,68.9,32.5,-100.00,South,180,3.0,4.0,26,0.00,,,0.00,meteohub,2013-04-06 08:57:00,
2013-04-06 12:03:00,68.9,31.6,-100.00,SW,225,1.0,5.0,25,0.00,,,0.00,meteohub,2013-04-06 09:03:00,
2013-04-06 12:08:00,68.9,30.6,-100.00,South,180,4.0,5.0,24,0.00,,,0.00,meteohub,2013-04-06 09:08:00,
2013-04-06 12:14:00,69.1,29.7,-100.00,SW,225,3.0,5.0,23,0.00,,,0.00,meteohub,2013-04-06 09:14:00,
2013-04-06 12:19:00,69.1,29.7,-100.00,SW,225,1.0,4.0,23,0.00,,,0.00,meteohub,2013-04-06 09:19:00,
2013-04-06 12:24:00,69.1,29.7,-100.00,South,180,2.0,5.0,23,0.00,,,0.00,meteohub,2013-04-06 09:24:00,